Weather Roundup
Issued by NWS

Home | Current Version | Previous Version | Graphics & Text | Print | Product List | Glossary Off
Versions: 1 2 3 4 5 6 7 8 9 10 11 12 13 14 15 16 17 18 19 20 21 22 23 24 25 26 27 28 29 30 31 32 33 34 35 36 37 38 39 40 41 42 43 44 45 46 47 48 49 50

000
NZUS93 KARX 181759
HRRWXR

CURRENT HOURLY OBSERVATIONS ACROSS
MUCH OF THE UPPER MISSISSIPPI VALLEY
NATIONAL WEATHER SERVICE LA CROSSE WI
100 PM CDT SAT APR 18 2015


...SOUTHEAST MINNESOTA...


CITY           SKY/WX    TMP DP  RH WIND       PRES   REMARKS
ROCHESTER      MOSUNNY   70  40  33 E15       30.02F
ROCHESTER/MAYO FAIR      69  36  29 E13G21    30.02F
WINONA         MOSUNNY   70  36  28 SE14      30.04F
AUSTIN         MOSUNNY   72  39  30 SE15G22   29.98F
ALBERT LEA     MOSUNNY   73  39  29 SE10G20   29.98F
DODGE CENTER   MOSUNNY   72  36  26 SE15G22   30.00F
PRESTON        MOSUNNY   69  37  30 E12       30.02F
OWATONNA       MOSUNNY   73  30  20 SE14      29.99F
FARIBAULT      MOSUNNY   72  34  25 E13G18    30.00F
$$

...ELSEWHERE IN MINNESOTA...


CITY           SKY/WX    TMP DP  RH WIND       PRES   REMARKS
MINNEAPOLIS    MOSUNNY   69  35  28 E14       30.03F
INTNL FALLS    SUNNY     56  19  23 SE13      30.13F
DULUTH         SUNNY     48  32  53 E20G26    30.16F
RED WING       MOSUNNY   72  30  21 SE12      30.02F
REDWOOD FALLS  MOSUNNY   73  28  18 SE10G22   29.96F
MANKATO        MOSUNNY   72  34  25 NE5       29.98F
WORTHINGTON    CLOUDY    70  39  32 SE24      29.94F
FAIRMONT       PTSUNNY   68  36  30 SE18      29.96F
$$

...SOUTHWEST WISCONSIN...


CITY           SKY/WX    TMP DP  RH WIND       PRES   REMARKS
LA CROSSE      MOSUNNY   73  33  23 E9G21     30.04F
PRAIRIE DU CHI SUNNY     73  37  27 E16       30.02F
BOSCOBEL       MOSUNNY   73  38  27 E13G18    30.04F
LONE ROCK      NOT AVBL
PLATTEVILLE    SUNNY     70  39  32 E20       30.05S
FORT MC COY    MOSUNNY   68  31  24 E15       30.08F
CAMP DOUGLAS   MOSUNNY   67  34  29 E18       30.09F
VIROQUA        FAIR      68  33  27 E21       30.07F
WIS DELLS      SUNNY     62  35  36 E12G18    30.11F
$$

...ELSEWHERE IN WISCONSIN...


CITY           SKY/WX    TMP DP  RH WIND       PRES   REMARKS
MILWAUKEE      PTSUNNY   46  36  68 N23G30    30.15F
MADISON        MOSUNNY   66  37  34 E18       30.10F
GREEN BAY      MOSUNNY   55  39  54 NE17      30.19F
EAU CLAIRE     NOT AVBL
BLACK RVR FLS  FAIR      70  28  21 E15       30.07F
MEDFORD        MOSUNNY   60  32  35 SE10      30.14S
WAUSAU         MOSUNNY   61  28  28 SE16      30.14S
WIS RAPIDS     MOSUNNY   60  30  32 SE15      30.14F
MARSHFIELD     MOSUNNY   64  33  31 E13       30.12F
RICE LAKE      SUNNY     62  30  29 SE3       30.12F
$$

...NORTHEAST IOWA...


CITY           SKY/WX    TMP DP  RH WIND       PRES   REMARKS
DECORAH        MOSUNNY   72  37  28 E15G22    30.01F
MASON CITY     CLOUDY    71  40  32 SE14      29.98F
CHARLES CITY   CLOUDY    73  41  31 SE20      29.99F
OELWEIN        MOSUNNY   77  45  31 SE23      29.99F
$$

...ELSEWHERE IN IOWA...


CITY           SKY/WX    TMP DP  RH WIND       PRES   REMARKS
DES MOINES     CLOUDY    74  56  53 SE14G22   29.90F
IOWA CITY      CLOUDY    74  55  51 SE12      29.98F
FORT DODGE     CLOUDY    55  52  88 NE7       29.95F
$$

...NORTHERN ILLINOIS...


CITY           SKY/WX    TMP DP  RH WIND       PRES   REMARKS
CHICAGO-OHARE  PTSUNNY   57  38  48 NE16      30.09S
CHICAGO-MIDWAY PTSUNNY   61  40  45 N14       30.08S
MOLINE         CLOUDY    76  53  44 SE9       29.98F
ROCKFORD       PTSUNNY   67  33  28 E14G22    30.08F
PEORIA         CLOUDY    78  55  44 SE12      30.00F
$$

NOTE: "FAIR" INDICATES FEW OR NO CLOUDS BELOW 12,000 FEET WITH NO
SIGNIFICANT WEATHER AND/OR OBSTRUCTIONS TO VISIBILITY. WIND
SPEEDS ARE IN MILES-PER-HOUR.



USA.gov is the U.S. government's official web portal to all federal, state and local government web resources and services.